| time (UTC) | temp F | wind direction | speed MPH | gust MPH | rain 1hr in | rain 24hr in | rain mn in | humidity % | barometer mb |
| 20260502164001 | 77 | 0.0 | 0.0 | 0.00 | 0.00 | 0.00 | 51 | 1015.3 | |
| 20260502163551 | 77 | 0.0 | 0.0 | 0.00 | 0.00 | 0.00 | 53 | 1015.5 | |
| 20260502163015 | 77 | 0.0 | 0.0 | 0.00 | 0.00 | 0.00 | 54 | 1015.5 | |
| 20260502162600 | 77 | 0.0 | 0.0 | 0.00 | 0.00 | 0.00 | 57 | 1015.7 | |
| 20260502162046 | 77 | 0.0 | 0.0 | 0.00 | 0.00 | 0.00 | 53 | 1015.7 | |
| 20260502161507 | 77 | 0.0 | 0.0 | 0.00 | 0.00 | 0.00 | 53 | 1015.7 | |
| 20260502161056 | 77 | 0.0 | 0.0 | 0.00 | 0.00 | 0.00 | 52 | 1015.7 | |
| 20260502160545 | 77 | 0.0 | 0.0 | 0.00 | 0.00 | 0.00 | 55 | 1015.8 | |
| 20260502152041 | 75 | 0.0 | 0.0 | 0.00 | 0.00 | 0.00 | 55 | 1016.3 | |
| 20260502151527 | 75 | 0.0 | 0.0 | 0.00 | 0.00 | 0.00 | 54 | 1016.3 | |
| 20260502151058 | 75 | 0.0 | 0.0 | 0.00 | 0.00 | 0.00 | 54 | 1016.4 | |
| 20260502150546 | 75 | 0.0 | 0.0 | 0.00 | 0.00 | 0.00 | 56 | 1016.4 | |
| 20260502130523 | 75 | 0.0 | 0.0 | 0.00 | 0.00 | 0.00 | 51 | 1017.1 | |
| 20260502123512 | 76 | 0.0 | 0.0 | 0.00 | 0.00 | 0.00 | 49 | 1017.5 | |
| 20260502123044 | 76 | 0.0 | 0.0 | 0.00 | 0.00 | 0.00 | 51 | 1017.4 | |
| 20260502122530 | 75 | 0.0 | 0.0 | 0.00 | 0.00 | 0.00 | 50 | 1017.6 | |
| 20260502122018 | 75 | 0.0 | 0.0 | 0.00 | 0.00 | 0.00 | 51 | 1017.6 | |
| 20260502121541 | 75 | 0.0 | 0.0 | 0.00 | 0.00 | 0.00 | 50 | 1017.6 | |
| 20260502121026 | 76 | 0.0 | 0.0 | 0.00 | 0.00 | 0.00 | 50 | 1017.8 | |
| 20260502120515 | 76 | 0.0 | 0.0 | 0.00 | 0.00 | 0.00 | 50 | 1017.7 | |
| 20260502115524 | 76 | 0.0 | 0.0 | 0.00 | 0.00 | 0.00 | 50 | 1017.8 | |
| 20260502115016 | 75 | 0.0 | 0.0 | 0.00 | 0.00 | 0.00 | 50 | 1017.9 | |
| 20260502114538 | 75 | 0.0 | 0.0 | 0.00 | 0.00 | 0.00 | 51 | 1017.9 | |
| 20260502114028 | 75 | 0.0 | 0.0 | 0.00 | 0.00 | 0.00 | 51 | 1018.0 | |
| 20260502113620 | 75 | 0.0 | 0.0 | 0.00 | 0.00 | 0.00 | 50 | 1018.0 | |
| 20260502113100 | 75 | 0.0 | 0.0 | 0.00 | 0.00 | 0.00 | 50 | 1018.2 | |
| 20260502112549 | 74 | 0.0 | 0.0 | 0.00 | 0.00 | 0.00 | 51 | 1018.2 | |
| 20260502112041 | 74 | 0.0 | 0.0 | 0.00 | 0.00 | 0.00 | 52 | 1018.1 | |
| 20260502111601 | 74 | 0.0 | 0.0 | 0.00 | 0.00 | 0.00 | 51 | 1018.2 | |
| 20260502111049 | 73 | 0.0 | 0.0 | 0.00 | 0.00 | 0.00 | 51 | 1018.2 | |
| 20260502110538 | 73 | 0.0 | 0.0 | 0.00 | 0.00 | 0.00 | 51 | 1018.2 | |
| 20260502110103 | 74 | 0.0 | 0.0 | 0.00 | 0.00 | 0.00 | 51 | 1018.2 | |
| 20260502105549 | 74 | 0.0 | 0.0 | 0.00 | 0.00 | 0.00 | 52 | 1018.3 | |
| 20260502105042 | 73 | 0.0 | 0.0 | 0.00 | 0.00 | 0.00 | 52 | 1018.3 | |
| 20260502104508 | 72 | 0.0 | 0.0 | 0.00 | 0.00 | 0.00 | 50 | 1018.2 | |
| 20260502104058 | 72 | 0.0 | 0.0 | 0.00 | 0.00 | 0.00 | 49 | 1018.3 | |
| 20260502103546 | 72 | 0.0 | 0.0 | 0.00 | 0.00 | 0.00 | 50 | 1018.4 | |
| 20260502103005 | 71 | 0.0 | 0.0 | 0.00 | 0.00 | 0.00 | 50 | 1018.3 | |
| 20260502102555 | 71 | 0.0 | 0.0 | 0.00 | 0.00 | 0.00 | 50 | 1018.5 | |
| 20260502102042 | 70 | 0.0 | 0.0 | 0.00 | 0.00 | 0.00 | 51 | 1018.6 | |
| 20260502101501 | 69 | 0.0 | 0.0 | 0.00 | 0.00 | 0.00 | 51 | 1018.7 | |
| 20260502101050 | 69 | 0.0 | 0.0 | 0.00 | 0.00 | 0.00 | 50 | 1018.6 | |
| 20260502100538 | 69 | 0.0 | 0.0 | 0.00 | 0.00 | 0.00 | 50 | 1018.7 | |
| 20260502100105 | 69 | 0.0 | 0.0 | 0.00 | 0.00 | 0.00 | 51 | 1018.8 | |
| 20260502091024 | 69 | 0.0 | 0.0 | 0.00 | 0.00 | 0.00 | 48 | 1018.9 | |
| 20260502090516 | 69 | 0.0 | 0.0 | 0.00 | 0.00 | 0.00 | 47 | 1019.0 | |
| 20260502071530 | 62 | 0.0 | 0.0 | 0.00 | 0.00 | 0.00 | 57 | 1019.2 | |
| 20260502071017 | 63 | 0.0 | 0.0 | 0.00 | 0.00 | 0.00 | 56 | 1019.2 | |
| 20260502070509 | 63 | 0.0 | 0.0 | 0.00 | 0.00 | 0.00 | 57 | 1019.1 | |
| 20260502070039 | 62 | 0.0 | 0.0 | 0.00 | 0.00 | 0.00 | 59 | 1019.0 | |
| 20260502065515 | 62 | 0.0 | 0.0 | 0.00 | 0.00 | 0.00 | 59 | 1019.1 | |
| 20260502065002 | 61 | 0.0 | 0.0 | 0.00 | 0.00 | 0.00 | 60 | 1019.0 | |
| 20260502064523 | 60 | 0.0 | 0.0 | 0.00 | 0.00 | 0.00 | 61 | 1019.0 | |
| 20260502064010 | 60 | 0.0 | 0.0 | 0.00 | 0.00 | 0.00 | 61 | 1019.1 | |
| 20260502063600 | 60 | 0.0 | 0.0 | 0.00 | 0.00 | 0.00 | 61 | 1019.1 | |
| 20260502063033 | 60 | 0.0 | 0.0 | 0.00 | 0.00 | 0.00 | 62 | 1019.0 | |
| 20260502062506 | 60 | 0.0 | 0.0 | 0.00 | 0.00 | 0.00 | 63 | 1019.0 | |
| 20260502062055 | 59 | 0.0 | 0.0 | 0.00 | 0.00 | 0.00 | 62 | 1018.9 | |
| 20260502061523 | 59 | 0.0 | 0.0 | 0.00 | 0.00 | 0.00 | 65 | 1018.9 | |
| 20260502061015 | 58 | 0.0 | 0.0 | 0.00 | 0.00 | 0.00 | 65 | 1018.9 | |
| 20260502060600 | 58 | 0.0 | 0.0 | 0.00 | 0.00 | 0.00 | 65 | 1018.9 | |
| 20260502060028 | 57 | 0.0 | 0.0 | 0.00 | 0.00 | 0.00 | 65 | 1019.0 | |
| 20260502055516 | 57 | 0.0 | 0.0 | 0.00 | 0.00 | 0.00 | 65 | 1019.1 | |
| 20260502055004 | 56 | 0.0 | 0.0 | 0.00 | 0.00 | 0.00 | 65 | 1019.1 | |
| 20260502054533 | 56 | 0.0 | 0.0 | 0.00 | 0.00 | 0.00 | 65 | 1019.1 | |
| 20260502054012 | 56 | 0.0 | 0.0 | 0.00 | 0.00 | 0.00 | 65 | 1019.0 | |
| 20260502053602 | 56 | 0.0 | 0.0 | 0.00 | 0.00 | 0.00 | 65 | 1019.0 | |
| 20260502053030 | 55 | 0.0 | 0.0 | 0.00 | 0.00 | 0.00 | 66 | 1018.9 | |
| 20260502052518 | 55 | 0.0 | 0.0 | 0.00 | 0.00 | 0.00 | 67 | 1019.0 | |
| 20260502052006 | 54 | 0.0 | 0.0 | 0.00 | 0.00 | 0.00 | 68 | 1019.0 | |
| 20260502051533 | 53 | 0.0 | 0.0 | 0.00 | 0.00 | 0.00 | 69 | 1019.0 | |
| 20260502051027 | 53 | 0.0 | 0.0 | 0.00 | 0.00 | 0.00 | 71 | 1019.0 | |
| 20260502050515 | 52 | 0.0 | 0.0 | 0.00 | 0.00 | 0.00 | 72 | 1019.1 | |
| 20260502050037 | 51 | 0.0 | 0.0 | 0.00 | 0.00 | 0.00 | 72 | 1019.1 | |
| 20260502045516 | 51 | 0.0 | 0.0 | 0.00 | 0.00 | 0.00 | 72 | 1019.2 | |
| 20260502045002 | 51 | 0.0 | 0.0 | 0.00 | 0.00 | 0.00 | 72 | 1019.1 | |
| 20260502044524 | 50 | 0.0 | 0.0 | 0.00 | 0.00 | 0.00 | 73 | 1019.2 | |
| 20260502044012 | 50 | 0.0 | 0.0 | 0.00 | 0.00 | 0.00 | 73 | 1019.2 | |
| 20260502043602 | 50 | 0.0 | 0.0 | 0.00 | 0.00 | 0.00 | 74 | 1019.4 | |
| 20260502043022 | 49 | 0.0 | 0.0 | 0.00 | 0.00 | 0.00 | 74 | 1019.2 | |
| 20260502042509 | 49 | 0.0 | 0.0 | 0.00 | 0.00 | 0.00 | 75 | 1019.2 | |
| 20260502042059 | 48 | 0.0 | 0.0 | 0.00 | 0.00 | 0.00 | 74 | 1019.1 | |
| 20260502041524 | 48 | 0.0 | 0.0 | 0.00 | 0.00 | 0.00 | 73 | 1019.1 | |
| 20260502041005 | 49 | 0.0 | 0.0 | 0.00 | 0.00 | 0.00 | 73 | 1018.9 | |
| 20260502040555 | 49 | 0.0 | 0.0 | 0.00 | 0.00 | 0.00 | 73 | 1019.0 | |
| 20260502040022 | 49 | 0.0 | 0.0 | 0.00 | 0.00 | 0.00 | 73 | 1019.2 | |
| 20260502035509 | 49 | 0.0 | 0.0 | 0.00 | 0.00 | 0.00 | 72 | 1019.2 | |
| 20260502035100 | 50 | 0.0 | 0.0 | 0.00 | 0.00 | 0.00 | 72 | 1019.2 | |
| 20260502034522 | 49 | 0.0 | 0.0 | 0.00 | 0.00 | 0.00 | 72 | 1019.1 | |
| 20260502034005 | 49 | 0.0 | 0.0 | 0.00 | 0.00 | 0.00 | 73 | 1019.1 | |
| 20260502033555 | 49 | 0.0 | 0.0 | 0.00 | 0.00 | 0.00 | 73 | 1019.1 | |
| 20260502033013 | 49 | 0.0 | 0.0 | 0.00 | 0.00 | 0.00 | 73 | 1019.2 | |
| 20260502032501 | 49 | 0.0 | 0.0 | 0.00 | 0.00 | 0.00 | 73 | 1019.2 | |
| 20260502032055 | 49 | 0.0 | 0.0 | 0.00 | 0.00 | 0.00 | 73 | 1019.3 | |
| 20260502031519 | 49 | 0.0 | 0.0 | 0.00 | 0.00 | 0.00 | 73 | 1019.4 | |
| 20260502031007 | 49 | 0.0 | 0.0 | 0.00 | 0.00 | 0.00 | 73 | 1019.4 | |
| 20260502030556 | 49 | 0.0 | 0.0 | 0.00 | 0.00 | 0.00 | 73 | 1019.5 | |
| 20260502030015 | 49 | 0.0 | 0.0 | 0.00 | 0.00 | 0.00 | 73 | 1019.6 | |
| 20260502025502 | 49 | 0.0 | 0.0 | 0.00 | 0.00 | 0.00 | 73 | 1019.6 | |
| 20260502025055 | 49 | 0.0 | 0.0 | 0.00 | 0.00 | 0.00 | 73 | 1019.6 | |
| 20260502024515 | 49 | 0.0 | 0.0 | 0.00 | 0.00 | 0.00 | 73 | 1019.7 | |
| 20260502024103 | 49 | 0.0 | 0.0 | 0.00 | 0.00 | 0.00 | 73 | 1019.7 | |
| 20260502023549 | 49 | 0.0 | 0.0 | 0.00 | 0.00 | 0.00 | 72 | 1019.8 | |
| 20260502023017 | 49 | 0.0 | 0.0 | 0.00 | 0.00 | 0.00 | 72 | 1019.7 | |
| 20260502022504 | 49 | 0.0 | 0.0 | 0.00 | 0.00 | 0.00 | 72 | 1019.8 | |
| 20260502022054 | 49 | 0.0 | 0.0 | 0.00 | 0.00 | 0.00 | 72 | 1019.7 | |
| 20260502021510 | 49 | 0.0 | 0.0 | 0.00 | 0.00 | 0.00 | 72 | 1019.8 | |
| 20260502021104 | 49 | 0.0 | 0.0 | 0.00 | 0.00 | 0.00 | 72 | 1019.9 | |
| 20260502020548 | 49 | 0.0 | 0.0 | 0.00 | 0.00 | 0.00 | 72 | 1019.8 | |
| 20260502020007 | 49 | 0.0 | 0.0 | 0.00 | 0.00 | 0.00 | 72 | 1019.9 | |
| 20260502015557 | 49 | 0.0 | 0.0 | 0.00 | 0.00 | 0.00 | 71 | 1020.0 | |
| 20260502015042 | 49 | 0.0 | 0.0 | 0.00 | 0.00 | 0.00 | 71 | 1020.0 | |
| 20260502014602 | 49 | 0.0 | 0.0 | 0.00 | 0.00 | 0.00 | 71 | 1020.0 | |
| 20260502014050 | 49 | 0.0 | 0.0 | 0.00 | 0.00 | 0.00 | 71 | 1020.0 | |
| 20260502013538 | 49 | 0.0 | 0.0 | 0.00 | 0.00 | 0.00 | 71 | 1020.0 | |
| 20260502013107 | 49 | 0.0 | 0.0 | 0.00 | 0.00 | 0.00 | 71 | 1020.1 | |
| 20260502012547 | 49 | 0.0 | 0.0 | 0.00 | 0.00 | 0.00 | 71 | 1020.1 | |
| 20260502012035 | 49 | 0.0 | 0.0 | 0.00 | 0.00 | 0.00 | 71 | 1020.1 | |
| 20260502011559 | 49 | 0.0 | 0.0 | 0.00 | 0.00 | 0.00 | 70 | 1020.2 | |
| 20260502011043 | 49 | 0.0 | 0.0 | 0.00 | 0.00 | 0.00 | 70 | 1020.3 | |
| 20260502010530 | 49 | 0.0 | 0.0 | 0.00 | 0.00 | 0.00 | 70 | 1020.4 | |
| 20260502010051 | 49 | 0.0 | 0.0 | 0.00 | 0.00 | 0.00 | 70 | 1020.3 | |
| 20260502005538 | 50 | 0.0 | 0.0 | 0.00 | 0.00 | 0.00 | 70 | 1020.4 | |
| 20260502005027 | 50 | 0.0 | 0.0 | 0.00 | 0.00 | 0.00 | 69 | 1020.4 | |
| 20260502004547 | 50 | 0.0 | 0.0 | 0.00 | 0.00 | 0.00 | 70 | 1020.5 | |
| 20260502004036 | 50 | 0.0 | 0.0 | 0.00 | 0.00 | 0.00 | 69 | 1020.5 | |
| 20260502003521 | 50 | 0.0 | 0.0 | 0.00 | 0.00 | 0.00 | 69 | 1020.6 | |
| 20260502003042 | 50 | 0.0 | 0.0 | 0.00 | 0.00 | 0.00 | 69 | 1020.6 | |
| 20260502002529 | 50 | 0.0 | 0.0 | 0.00 | 0.00 | 0.00 | 69 | 1020.7 | |
| 20260502002021 | 50 | 0.0 | 0.0 | 0.00 | 0.00 | 0.00 | 69 | 1020.8 | |
| 20260502001538 | 51 | 0.0 | 0.0 | 0.00 | 0.00 | 0.00 | 69 | 1020.8 | |
| 20260502001026 | 51 | 0.0 | 0.0 | 0.00 | 0.00 | 0.00 | 69 | 1020.7 | |
| 20260502000513 | 51 | 0.0 | 0.0 | 0.00 | 0.00 | 0.00 | 69 | 1020.7 | |
| 20260502000057 | 50 | 0.0 | 0.0 | 0.00 | 0.00 | 0.00 | 69 | 1020.8 | |
| 20260501235521 | 50 | 0.0 | 0.0 | 0.00 | 0.00 | 0.00 | 69 | 1020.8 | |
| 20260501235007 | 50 | 0.0 | 0.0 | 0.00 | 0.00 | 0.00 | 68 | 1020.9 | |
| 20260501234539 | 51 | 0.0 | 0.0 | 0.00 | 0.00 | 0.00 | 68 | 1021.0 | |
| 20260501234028 | 51 | 0.0 | 0.0 | 0.00 | 0.00 | 0.00 | 68 | 1020.9 | |
| 20260501233511 | 51 | 0.0 | 0.0 | 0.00 | 0.00 | 0.00 | 68 | 1020.9 | |
| 20260501233032 | 51 | 0.0 | 0.0 | 0.00 | 0.00 | 0.00 | 67 | 1021.0 | |
| 20260501232519 | 51 | 0.0 | 0.0 | 0.00 | 0.00 | 0.00 | 67 | 1021.0 | |
| 20260501232010 | 51 | 0.0 | 0.0 | 0.00 | 0.00 | 0.00 | 67 | 1021.0 | |
| 20260501231530 | 51 | 0.0 | 0.0 | 0.00 | 0.00 | 0.00 | 67 | 1021.0 | |
| 20260501231016 | 52 | 0.0 | 0.0 | 0.00 | 0.00 | 0.00 | 67 | 1020.9 | |
| 20260501230503 | 52 | 0.0 | 0.0 | 0.00 | 0.00 | 0.00 | 67 | 1021.0 | |
| 20260501230034 | 52 | 0.0 | 0.0 | 0.00 | 0.00 | 0.00 | 66 | 1021.1 | |
| 20260501225520 | 52 | 0.0 | 0.0 | 0.00 | 0.00 | 0.00 | 66 | 1021.0 | |
| 20260501225007 | 52 | 0.0 | 0.0 | 0.00 | 0.00 | 0.00 | 66 | 1020.9 | |
| 20260501224558 | 52 | 0.0 | 0.0 | 0.00 | 0.00 | 0.00 | 66 | 1021.1 | |
| 20260501224023 | 52 | 0.0 | 0.0 | 0.00 | 0.00 | 0.00 | 66 | 1021.1 | |
| 20260501223510 | 52 | 0.0 | 0.0 | 0.00 | 0.00 | 0.00 | 66 | 1021.1 | |
| 20260501223029 | 53 | 0.0 | 0.0 | 0.00 | 0.00 | 0.00 | 66 | 1021.0 | |
| 20260501222516 | 53 | 0.0 | 0.0 | 0.00 | 0.00 | 0.00 | 66 | 1021.1 | |
| 20260501222004 | 53 | 0.0 | 0.0 | 0.00 | 0.00 | 0.00 | 65 | 1021.1 | |
| 20260501221522 | 53 | 0.0 | 0.0 | 0.00 | 0.00 | 0.00 | 66 | 1021.1 | |
| 20260501221011 | 53 | 0.0 | 0.0 | 0.00 | 0.00 | 0.00 | 65 | 1021.2 | |
| 20260501220559 | 53 | 0.0 | 0.0 | 0.00 | 0.00 | 0.00 | 65 | 1021.2 | |
| 20260501220024 | 54 | 0.0 | 0.0 | 0.00 | 0.00 | 0.00 | 65 | 1021.2 | |
| 20260501215504 | 54 | 0.0 | 0.0 | 0.00 | 0.00 | 0.00 | 65 | 1021.2 | |
| 20260501215054 | 54 | 0.0 | 0.0 | 0.00 | 0.00 | 0.00 | 65 | 1021.2 | |
| 20260501214521 | 54 | 0.0 | 0.0 | 0.00 | 0.00 | 0.00 | 64 | 1021.2 | |
| 20260501214010 | 54 | 0.0 | 0.0 | 0.00 | 0.00 | 0.00 | 64 | 1021.2 | |
| 20260501213557 | 55 | 0.0 | 0.0 | 0.00 | 0.00 | 0.00 | 63 | 1021.2 | |
| 20260501213016 | 55 | 0.0 | 0.0 | 0.00 | 0.00 | 0.00 | 62 | 1021.2 | |
| 20260501212503 | 55 | 0.0 | 0.0 | 0.00 | 0.00 | 0.00 | 62 | 1021.2 | |
| 20260501212053 | 55 | 0.0 | 0.0 | 0.00 | 0.00 | 0.00 | 61 | 1021.2 | |
| 20260501211518 | 56 | 0.0 | 0.0 | 0.00 | 0.00 | 0.00 | 61 | 1021.3 | |
| 20260501211100 | 56 | 0.0 | 0.0 | 0.00 | 0.00 | 0.00 | 61 | 1021.2 | |
| 20260501210548 | 56 | 0.0 | 0.0 | 0.00 | 0.00 | 0.00 | 60 | 1021.4 | |
| 20260501210016 | 57 | 0.0 | 0.0 | 0.00 | 0.00 | 0.00 | 59 | 1021.3 | |
| 20260501205504 | 57 | 0.0 | 0.0 | 0.00 | 0.00 | 0.00 | 59 | 1021.4 | |
| 20260501205054 | 57 | 0.0 | 0.0 | 0.00 | 0.00 | 0.00 | 58 | 1021.4 | |
| 20260501204512 | 58 | 0.0 | 0.0 | 0.00 | 0.00 | 0.00 | 58 | 1021.5 | |
| 20260501204103 | 58 | 0.0 | 0.0 | 0.00 | 0.00 | 0.00 | 57 | 1021.4 | |
| 20260501203549 | 58 | 0.0 | 0.0 | 0.00 | 0.00 | 0.00 | 56 | 1021.5 | |
| 20260501203007 | 59 | 0.0 | 0.0 | 0.00 | 0.00 | 0.00 | 56 | 1021.5 | |
| 20260501202557 | 59 | 0.0 | 0.0 | 0.00 | 0.00 | 0.00 | 55 | 1021.5 | |
| 20260501202043 | 59 | 0.0 | 0.0 | 0.00 | 0.00 | 0.00 | 54 | 1021.5 | |
| 20260501201515 | 60 | 0.0 | 0.0 | 0.00 | 0.00 | 0.00 | 53 | 1021.5 | |
| 20260501201101 | 60 | 0.0 | 0.0 | 0.00 | 0.00 | 0.00 | 53 | 1021.5 | |
| 20260501200548 | 61 | 0.0 | 0.0 | 0.00 | 0.00 | 0.00 | 51 | 1021.5 | |
| 20260501200006 | 61 | 0.0 | 0.0 | 0.00 | 0.00 | 0.00 | 50 | 1021.4 | |
| 20260501195554 | 62 | 0.0 | 0.0 | 0.00 | 0.00 | 0.00 | 50 | 1021.5 | |
| 20260501195042 | 62 | 0.0 | 0.0 | 0.00 | 0.00 | 0.00 | 49 | 1021.6 | |
| 20260501194604 | 63 | 0.0 | 0.0 | 0.00 | 0.00 | 0.00 | 49 | 1021.6 | |
| 20260501194049 | 63 | 0.0 | 0.0 | 0.00 | 0.00 | 0.00 | 47 | 1021.5 | |
| 20260501193539 | 64 | 0.0 | 0.0 | 0.00 | 0.00 | 0.00 | 46 | 1021.4 | |
| 20260501193057 | 65 | 0.0 | 0.0 | 0.00 | 0.00 | 0.00 | 45 | 1021.5 | |
| 20260501192545 | 65 | 0.0 | 0.0 | 0.00 | 0.00 | 0.00 | 44 | 1021.4 | |
| 20260501192031 | 66 | 0.0 | 0.0 | 0.00 | 0.00 | 0.00 | 43 | 1021.4 | |
| 20260501191554 | 66 | 0.0 | 0.0 | 0.00 | 0.00 | 0.00 | 42 | 1021.5 | |
| 20260501191040 | 67 | 0.0 | 0.0 | 0.00 | 0.00 | 0.00 | 41 | 1021.3 | |
| 20260501190528 | 67 | 0.0 | 0.0 | 0.00 | 0.00 | 0.00 | 40 | 1021.4 | |
| 20260501190050 | 68 | 0.0 | 0.0 | 0.00 | 0.00 | 0.00 | 39 | 1021.4 | |
| 20260501185537 | 68 | 0.0 | 0.0 | 0.00 | 0.00 | 0.00 | 39 | 1021.4 | |
| 20260501185024 | 69 | 0.0 | 0.0 | 0.00 | 0.00 | 0.00 | 38 | 1021.3 | |
| 20260501184545 | 69 | 0.0 | 0.0 | 0.00 | 0.00 | 0.00 | 38 | 1021.4 | |
| 20260501184032 | 70 | 0.0 | 0.0 | 0.00 | 0.00 | 0.00 | 37 | 1021.4 | |
| 20260501183517 | 70 | 0.0 | 0.0 | 0.00 | 0.00 | 0.00 | 36 | 1021.4 | |
| 20260501183039 | 70 | 0.0 | 0.0 | 0.00 | 0.00 | 0.00 | 35 | 1021.4 | |
| 20260501182527 | 71 | 0.0 | 0.0 | 0.00 | 0.00 | 0.00 | 35 | 1021.4 | |
| 20260501182018 | 71 | 0.0 | 0.0 | 0.00 | 0.00 | 0.00 | 35 | 1021.4 | |
| 20260501181534 | 72 | 0.0 | 0.0 | 0.00 | 0.00 | 0.00 | 34 | 1021.5 | |
| 20260501181022 | 72 | 0.0 | 0.0 | 0.00 | 0.00 | 0.00 | 33 | 1021.4 | |
| 20260501180509 | 73 | 0.0 | 0.0 | 0.00 | 0.00 | 0.00 | 33 | 1021.4 | |
| 20260501180039 | 73 | 0.0 | 0.0 | 0.00 | 0.00 | 0.00 | 33 | 1021.4 | |
| 20260501175525 | 73 | 0.0 | 0.0 | 0.00 | 0.00 | 0.00 | 32 | 1021.4 | |
| 20260501175013 | 73 | 0.0 | 0.0 | 0.00 | 0.00 | 0.00 | 32 | 1021.3 | |
| 20260501174533 | 73 | 0.0 | 0.0 | 0.00 | 0.00 | 0.00 | 31 | 1021.4 | |
| 20260501174024 | 74 | 0.0 | 0.0 | 0.00 | 0.00 | 0.00 | 31 | 1021.3 | |
| 20260501173510 | 74 | 0.0 | 0.0 | 0.00 | 0.00 | 0.00 | 30 | 1021.3 | |
| 20260501173044 | 74 | 0.0 | 0.0 | 0.00 | 0.00 | 0.00 | 31 | 1021.4 | |
| 20260501172518 | 74 | 0.0 | 0.0 | 0.00 | 0.00 | 0.00 | 30 | 1021.4 | |
| 20260501172006 | 74 | 0.0 | 0.0 | 0.00 | 0.00 | 0.00 | 30 | 1021.4 | |
| 20260501171536 | 75 | 0.0 | 0.0 | 0.00 | 0.00 | 0.00 | 30 | 1021.5 | |
| 20260501171023 | 75 | 0.0 | 0.0 | 0.00 | 0.00 | 0.00 | 30 | 1021.4 | |
| 20260501170511 | 75 | 0.0 | 0.0 | 0.00 | 0.00 | 0.00 | 30 | 1021.3 | |
| 20260501170031 | 75 | 0.0 | 0.0 | 0.00 | 0.00 | 0.00 | 30 | 1021.4 | |
| 20260501165518 | 75 | 0.0 | 0.0 | 0.00 | 0.00 | 0.00 | 29 | 1021.4 | |
| 20260501165006 | 76 | 0.0 | 0.0 | 0.00 | 0.00 | 0.00 | 29 | 1021.4 |